7 * 24
多渠道服务支持
TIANQI-12 是一颗由中国研制和发射的气象卫星,主要用于天气监测和气象预报。该卫星搭载了先进的遥感设备,能够实时获取地球大气层的温度、湿度和云层分布等关键数据。TIANQI-12 的发射提升了中国在气象观测和灾害预警方面的能力,为防灾减灾和气候变化研究提供了重要支持。该卫星运行在地球同步轨道,确保对特定区域的持续监测,增强了气象数据的时效性和准确性。
中国
(CN)
| 数据来源 | 国际轨道数据 |
| 星历时间: | 2025-12-15T03:51:49+0800 22小时前 查看轨道信息 |
| 半长轴: | 6915.888km |
| 偏心率: | 0.0003852 |
| 轨道倾角: | 35.002° |
| 近地点辐角 | 125.851° |
| 升交点赤经 | 23.767° |
| 平近点角 | 234.256° |
| 近地点: | 535.088km |
| 远地点: | 540.418km |
| 周期: | 95.396分钟 |
| 每日圈数: | 15.094922 |